Weather observations for the past three days for
Batesville, Batesville Regional Airport
Metric (Imperial)
Date Time (cdt) Wind (kph) Vis. (km) Weather Sky Cond. Temperature (ºC) Relative Humidity Wind Chill (°C) Heat Index (°C) Pressure Precipitation (cm)
Air Dwpt 6 hour altimeter (cm) sea level (mb) 1 hr 3 hr 6 hr
Max. Min.
10 02:56 Calm 16.09 Fair CLR 15.6 12.2 80% 76 1012.8
10 01:56 Calm 16.09 Fair CLR 16.7 11.7 73% 76.02 1013.3
10 00:56 Calm 16.09 Fair CLR 16.7 11.7 27.2 16.1 73% 76.02 1013.4
09 23:56 Calm 16.09 Fair CLR 18.3 10.6 61% 76 1013.1
09 22:56 SE 6 16.09 Fair CLR 20.6 10.6 53% 75.97 1012.6
09 21:56 SE 6 16.09 Fair CLR 21.1 11.1 53% 75.97 1012.6
09 20:56 SE 7 16.09 Fair CLR 21.7 11.1 51% 75.9 1011.7
09 19:56 SE 7 16.09 Fair CLR 23.9 10 42% 25 75.87 1011.2
09 18:56 SE 7 16.09 Fair CLR 27.2 8.3 29.4 26.1 30% 27 75.82 1010.5
09 17:56 S 7 16.09 Fair CLR 27.8 7.2 27% 27 75.79 1010.3
09 16:56 Calm 16.09 Fair CLR 27.8 7.8 28% 27 75.77 1010.0
09 15:56 Calm 16.09 Fair CLR 28.3 8.9 30% 27 75.79 1010.4
09 14:56 E 6 16.09 Fair CLR 29.4 7.2 25% 28 75.84 1010.8
09 13:56 SE 11 16.09 Fair CLR 28.3 8.3 28% 27 75.87 1011.0
09 12:56 Calm 16.09 Fair CLR 26.1 10.6 26.7 15 38% 26 75.9 1011.4
09 11:56 Vrbl 9 16.09 Fair CLR 25 13.3 48% 26 75.9 1011.5
09 10:56 NE 9 16.09 Fair CLR 23.9 14.4 55% 25 75.9 1011.5
09 09:56 Vrbl 9 16.09 Fair CLR 21.7 14.4 63% 75.9 1011.5
09 08:56 NW 7 16.09 Fair CLR 20.6 13.9 66% 75.9 1011.4
09 07:56 Calm 16.09 Fair CLR 18.3 14.4 78% 75.87 1011.1
09 06:56 Calm 16.09 Fair CLR 15 12.8 20 13.3 87% 75.79 1010.3
09 05:56 Calm 16.09 Fair CLR 14.4 12.2 87% 75.74 1009.7
09 04:56 NW 6 16.09 Fair CLR 15 12.2 83% 75.77 1009.7
09 03:56 Calm 16.09 Fair CLR 15 12.8 87% 75.74 1009.5
09 02:56 SW 7 16.09 Fair CLR 16.7 12.8 78% 75.79 1010.0
09 01:56 NW 11 16.09 Fair CLR 18.3 12.2 68% 75.74 1009.6
09 00:56 W 19 G 31 16.09 Fair CLR 19.4 12.2 21.7 18.3 63% 75.69 1009.1
08 23:56 Calm 16.09 A Few Clouds FEW120 19.4 11.1 59% 75.72 1009.3
08 22:56 SW 15 16.09 A Few Clouds FEW120 20 10.6 55% 75.77 1009.9
08 21:56 SW 7 16.09 A Few Clouds FEW110 18.9 10.6 59% 75.84 1010.8
08 20:56 S 7 16.09 Fair CLR 18.9 10.6 59% 75.79 1010.1
08 19:56 S 6 16.09 Fair CLR 20 11.1 57% 75.77 1009.7
08 18:56 S 9 16.09 Fair CLR 21.7 10.6 24.4 21.7 49% 75.74 1009.7
08 17:56 S 15 16.09 Fair CLR 23.3 9.4 41% 75.74 1009.7
08 16:56 SW 15 16.09 Fair CLR 23.9 10 42% 25 75.77 1010.0
08 15:56 Vrbl 9 16.09 Fair CLR 23.9 10.6 43% 25 75.82 1010.6
08 14:56 Vrbl 11 G 26 16.09 Fair CLR 23.9 11.1 45% 25 75.87 1011.2
08 13:56 S 15 8.05 Fair with Haze CLR 23.3 11.1 46% 75.92 1012.0
08 12:56 S 20 G 31 16.09 Fair CLR 22.2 11.1 22.2 12.8 50% 76.02 1013.3
08 11:56 Vrbl 11 16.09 Fair CLR 21.7 11.1 51% 76.1 1014.4
08 10:56 SW 19 16.09 Fair CLR 20.6 11.1 55% 76.17 1015.3
08 09:56 Vrbl 9 16.09 Fair CLR 19.4 11.1 59% 76.2 1015.7
08 08:56 SW 7 16.09 Fair CLR 17.8 10 60% 76.25 1016.4
08 07:56 SW 7 16.09 Fair CLR 16.1 9.4 65% 76.25 1016.4
08 06:56 Calm 16.09 Fair CLR 13.3 9.4 13.9 10.6 77% 76.23 1016.3
08 05:56 S 6 16.09 Fair CLR 12.8 8.9 77% 76.2 1015.6
08 04:56 S 11 16.09 Fair CLR 12.8 8.9 77% 76.2 1015.6
08 03:56 SE 7 16.09 Fair CLR 11.1 9.4 89% 76.2 1015.9
08 02:56 Calm 16.09 Fair CLR 11.1 9.4 89% 76.2 1015.9
08 01:56 Calm 16.09 Fair CLR 11.7 9.4 86% 76.25 1016.4
08 00:56 Calm 16.09 Fair CLR 12.8 10 20.6 12.8 83% 76.25 1016.7
07 23:56 SE 6 16.09 Fair CLR 14.4 10 75% 76.25 1016.5
07 22:56 S 7 16.09 Fair CLR 15 9.4 69% 76.25 1016.5
07 21:56 SE 7 16.09 Fair CLR 15.6 9.4 67% 76.23 1016.1
07 20:56 SE 6 16.09 Fair CLR 16.1 9.4 65% 76.2 1015.7
07 19:56 Calm 16.09 Fair CLR 18.3 8.3 52% 76.15 1015.1
07 18:56 SE 7 16.09 Fair CLR 20.6 6.7 22.2 18.3 41% 76.15 1015.1
07 17:56 NW 7 16.09 Fair CLR 21.7 5.6 35% 76.15 1015.2
07 16:56 Calm 16.09 Fair CLR 21.1 5 35% 76.15 1015.3
07 15:56 W 7 16.09 Fair CLR 20.6 5 36% 76.2 1015.6
07 14:56 Vrbl 6 16.09 Fair CLR 20 5 38% 76.23 1016.3
07 13:56 Vrbl 6 16.09 Fair CLR 19.4 3.9 36% 76.33 1017.3
07 12:56 W 7 16.09 Fair CLR 18.3 6.1 18.9 7.8 45% 76.35 1017.8
07 11:56 Vrbl 7 16.09 Fair CLR 17.2 5.6 47% 76.43 1018.9
07 10:56 Calm 16.09 Fair CLR 16.7 6.1 50% 76.45 1019.1
07 09:56 NE 7 16.09 Fair CLR 14.4 7.2 62% 76.48 1019.6
07 08:56 Calm 16.09 Fair CLR 11.7 6.7 72% 76.48 1019.6
07 07:56 W 6 16.09 Fair CLR 9.4 7.2 86% 76.45 1019.5
07 06:56 NW 6 16.09 Fair CLR 7.8 6.7 10 7.2 93% 76.4 1018.9
07 05:56 NW 6 16.09 Fair CLR 7.2 6.7 97% 76.4 1018.6
07 04:56 Calm 16.09 Fair CLR 7.8 7.2 96% 76.33 1017.7
07 03:56 Calm 16.09 Fair CLR 8.3 8.3 100% 76.35 1017.9
Date Time (cdt) Wind (kph) Vis. (km) Weather Sky Cond. Air Dwpt Max. Min. Relative Humidity Wind Chill (°C) Heat Index (°C) altimeter (cm) sea level (mb) 1 hr 3 hr 6 hr
6 hour
Temperature (ºC) Pressure Precipitation (cm)